When you browse on this site, cookies collect data to enhance your experience and personalize the content and advertising you see.
Visit our Privacy Policy to learn more. By continuing to use the site, you agree to this use of cookies and data.
  • In France
  • List of Countries
  • For 7 days
  • Water Temperature
  • Weather Map
  • Weather Widgets
  • user-avatar
    Login

    Hourly Weather Nuernberg

    Today, 26 January, Sunday

    Time Temperature Precipitation Wind Pressure Humidity
    00:00 +1°C° 0 mm 1 mps 737 mmHg 92%
    01:00 +1°C° 0 mm 1 mps 737 mmHg 93%
    02:00 +1°C° 0 mm 1 mps 737 mmHg 93%
    03:00 +2°C° 0 mm 1 mps 736 mmHg 93%
    04:00 +2°C° 0 mm 1 mps 736 mmHg 94%
    05:00 +2°C° 0 mm 1 mps 736 mmHg 94%
    06:00 +2°C° 0 mm 1 mps 736 mmHg 94%
    07:00 +2°C° 0 mm 1 mps 736 mmHg 94%
    08:00 +2°C° 0 mm 1 mps 736 mmHg 92%
    09:00 +3°C° 0 mm 1 mps 736 mmHg 90%
    10:00 +4°C° 0 mm 1 mps 737 mmHg 88%
    11:00 +4°C° 0 mm 1 mps 736 mmHg 85%
    12:00 +5°C° 0 mm 1 mps 736 mmHg 81%
    13:00 +6°C° 0 mm 1 mps 735 mmHg 78%
    14:00 +6°C° 0 mm 1 mps 735 mmHg 82%
    15:00 +5°C° 0 mm 1 mps 735 mmHg 85%
    16:00 +5°C° 0 mm 1 mps 735 mmHg 88%
    17:00 +4°C° 0 mm 1 mps 735 mmHg 89%
    18:00 +3°C° 0 mm 1 mps 735 mmHg 90%
    19:00 +2°C° 0 mm 1 mps 735 mmHg 91%
    20:00 +2°C° 0 mm 1 mps 735 mmHg 91%
    21:00 +3°C° 0 mm 1 mps 735 mmHg 90%
    22:00 +3°C° 0 mm 1 mps 735 mmHg 90%
    23:00 +3°C° 0 mm 1 mps 735 mmHg 90%

    Tomorrow, 27 January, Monday

    Time Temperature Precipitation Wind Pressure Humidity
    00:00 +3°C° 0 mm 1 mps 735 mmHg 90%
    01:00 +3°C° 0 mm 1 mps 735 mmHg 91%
    02:00 +3°C° 0 mm 1 mps 735 mmHg 92%
    03:00 +3°C° 0 mm 1 mps 735 mmHg 92%
    04:00 +2°C° 0 mm 1 mps 734 mmHg 93%
    05:00 +2°C° 0 mm 2 mps 734 mmHg 93%
    06:00 +2°C° 0 mm 2 mps 734 mmHg 93%
    07:00 +2°C° 0 mm 2 mps 734 mmHg 93%
    08:00 +3°C° 0 mm 2 mps 734 mmHg 92%
    09:00 +3°C° 0 mm 2 mps 734 mmHg 90%
    10:00 +3°C° 0 mm 3 mps 733 mmHg 89%
    11:00 +4°C° 0 mm 3 mps 733 mmHg 85%
    12:00 +5°C° 0 mm 3 mps 732 mmHg 82%
    13:00 +7°C° 0 mm 3 mps 732 mmHg 79%
    14:00 +7°C° 0 mm 3 mps 731 mmHg 81%
    15:00 +5°C° 0 mm 3 mps 730 mmHg 84%
    16:00 +6°C° 0 mm 2 mps 730 mmHg 86%
    17:00 +5°C° 0 mm 3 mps 729 mmHg 87%
    18:00 +4°C° 0 mm 3 mps 729 mmHg 87%
    19:00 +4°C° 0 mm 3 mps 728 mmHg 88%
    20:00 +4°C° 0.2 mm 3 mps 728 mmHg 88%
    21:00 +4°C° 0.2 mm 3 mps 727 mmHg 88%
    22:00 +4°C° 0.2 mm 3 mps 727 mmHg 88%
    23:00 +4°C° 0.3 mm 3 mps 726 mmHg 88%

    Day after tomorrow, 28 January, Tuesday

    Time Temperature Precipitation Wind Pressure Humidity
    00:00 +4°C° 0.3 mm 3 mps 726 mmHg 88%
    01:00 +4°C° 0.3 mm 3 mps 725 mmHg 88%
    02:00 +4°C° 0.6 mm 3 mps 724 mmHg 89%
    03:00 +4°C° 0.6 mm 3 mps 723 mmHg 89%
    04:00 +3°C° 0.6 mm 3 mps 723 mmHg 90%
    05:00 +4°C° 0.4 mm 4 mps 722 mmHg 88%
    06:00 +4°C° 0.4 mm 4 mps 722 mmHg 87%
    07:00 +5°C° 0.4 mm 5 mps 722 mmHg 85%
    08:00 +3°C° 0.3 mm 5 mps 722 mmHg 87%
    09:00 +3°C° 0.3 mm 5 mps 722 mmHg 89%
    10:00 +3°C° 0.3 mm 5 mps 721 mmHg 91%
    11:00 +3°C° 0.6 mm 6 mps 721 mmHg 89%
    12:00 +3°C° 0.6 mm 6 mps 721 mmHg 86%
    13:00 +2°C° 0.6 mm 6 mps 721 mmHg 84%
    14:00 +2°C° 0.1 mm 7 mps 721 mmHg 83%
    15:00 0°C° 0.1 mm 8 mps 722 mmHg 83%
    16:00 0°C° 0.1 mm 8 mps 723 mmHg 82%
    17:00 -1°C° 0 mm 8 mps 724 mmHg 80%
    18:00 -1°C° 0 mm 7 mps 724 mmHg 78%
    19:00 -2°C° 0 mm 6 mps 725 mmHg 77%
    20:00 -2°C° 0 mm 6 mps 725 mmHg 77%
    21:00 -1°C° 0 mm 5 mps 725 mmHg 78%
    22:00 -1°C° 0 mm 5 mps 725 mmHg 79%
    23:00 -2°C° 0.1 mm 6 mps 724 mmHg 81%

    29 January, Wednesday

    Time Temperature Precipitation Wind Pressure Humidity
    00:00 -2°C° 0.1 mm 6 mps 724 mmHg 84%
    01:00 -1°C° 0.1 mm 7 mps 723 mmHg 87%
    02:00 -2°C° 0.1 mm 6 mps 723 mmHg 88%
    03:00 -2°C° 0.1 mm 6 mps 723 mmHg 90%
    04:00 -1°C° 0.1 mm 5 mps 723 mmHg 91%
    05:00 -1°C° 0.6 mm 5 mps 723 mmHg 92%
    06:00 -1°C° 0.6 mm 5 mps 723 mmHg 93%
    07:00 -1°C° 0.6 mm 5 mps 723 mmHg 94%
    08:00 -1°C° 0.1 mm 5 mps 724 mmHg 89%
    09:00 -2°C° 0.1 mm 6 mps 725 mmHg 84%
    10:00 -2°C° 0.1 mm 6 mps 726 mmHg 79%
    11:00 -1°C° 0 mm 6 mps 727 mmHg 78%
    12:00 -1°C° 0 mm 7 mps 727 mmHg 76%
    13:00 -1°C° 0 mm 7 mps 728 mmHg 75%
    14:00 -1°C° 0 mm 6 mps 728 mmHg 75%
    15:00 -1°C° 0 mm 6 mps 729 mmHg 74%
    16:00 -1°C° 0 mm 6 mps 729 mmHg 74%
    17:00 0°C° 0 mm 5 mps 729 mmHg 77%
    18:00 -1°C° 0 mm 5 mps 730 mmHg 80%
    19:00 -1°C° 0 mm 5 mps 731 mmHg 83%
    20:00 -2°C° 0 mm 4 mps 731 mmHg 84%
    21:00 -2°C° 0 mm 4 mps 731 mmHg 85%
    22:00 -2°C° 0 mm 4 mps 732 mmHg 86%
    23:00 -2°C° 0.1 mm 4 mps 732 mmHg 87%

    30 January, Thursday

    Time Temperature Precipitation Wind Pressure Humidity
    00:00 -2°C° 0.1 mm 4 mps 733 mmHg 89%
    01:00 -2°C° 0.1 mm 4 mps 733 mmHg 90%
    02:00 -2°C° 0 mm 4 mps 733 mmHg 90%
    03:00 -2°C° 0 mm 4 mps 733 mmHg 90%
    04:00 -2°C° 0 mm 4 mps 734 mmHg 90%
    05:00 -2°C° 0 mm 4 mps 734 mmHg 89%
    06:00 -2°C° 0 mm 4 mps 734 mmHg 88%
    07:00 -2°C° 0 mm 4 mps 735 mmHg 88%
    08:00 -1°C° 0 mm 4 mps 735 mmHg 87%
    09:00 -1°C° 0 mm 4 mps 736 mmHg 87%
    10:00 -1°C° 0 mm 4 mps 736 mmHg 86%
    11:00 0°C° 0 mm 4 mps 736 mmHg 83%
    12:00 0°C° 0 mm 4 mps 736 mmHg 80%
    13:00 +1°C° 0 mm 4 mps 736 mmHg 77%
    14:00 +2°C° 0 mm 3 mps 735 mmHg 79%
    15:00 +3°C° 0 mm 2 mps 735 mmHg 80%
    16:00 +4°C° 0 mm 1 mps 735 mmHg 82%
    17:00 +3°C° 0 mm 1 mps 735 mmHg 85%
    18:00 +2°C° 0 mm 1 mps 735 mmHg 88%
    19:00 +1°C° 0 mm 1 mps 735 mmHg 91%
    20:00 +1°C° 0 mm 1 mps 735 mmHg 91%
    21:00 +1°C° 0 mm 1 mps 735 mmHg 92%
    22:00 +1°C° 0 mm 1 mps 734 mmHg 93%
    23:00 0°C° 0 mm 1 mps 734 mmHg 92%

    31 January, Friday

    Time Temperature Precipitation Wind Pressure Humidity
    00:00 -2°C° 0 mm 2 mps 734 mmHg 92%
    01:00 -2°C° 0 mm 2 mps 734 mmHg 92%
    02:00 -2°C° 0 mm 2 mps 734 mmHg 92%
    03:00 -2°C° 0 mm 2 mps 734 mmHg 92%
    04:00 -2°C° 0 mm 2 mps 733 mmHg 92%
    05:00 -2°C° 0 mm 2 mps 733 mmHg 91%
    06:00 -2°C° 0 mm 2 mps 733 mmHg 90%
    07:00 -2°C° 0 mm 2 mps 733 mmHg 89%
    08:00 -1°C° 0 mm 2 mps 734 mmHg 83%
    09:00 +1°C° 0 mm 2 mps 734 mmHg 77%
    10:00 +2°C° 0 mm 2 mps 734 mmHg 71%
    11:00 +3°C° 0 mm 2 mps 734 mmHg 72%
    12:00 +4°C° 0 mm 2 mps 734 mmHg 73%
    13:00 +5°C° 0 mm 2 mps 734 mmHg 73%
    14:00 +5°C° 0.1 mm 2 mps 734 mmHg 80%
    15:00 +6°C° 0.1 mm 1 mps 734 mmHg 87%
    16:00 +5°C° 0.1 mm 1 mps 734 mmHg 93%
    17:00 +4°C° 0 mm 2 mps 734 mmHg 94%
    18:00 +4°C° 0 mm 2 mps 734 mmHg 95%
    19:00 +4°C° 0 mm 2 mps 734 mmHg 96%
    20:00 +4°C° 0 mm 2 mps 734 mmHg 96%
    21:00 +5°C° 0 mm 2 mps 734 mmHg 97%
    22:00 +5°C° 0 mm 2 mps 734 mmHg 97%
    23:00 +5°C° 0 mm 2 mps 734 mmHg 97%
    Show more